Location: Caltech
(34.1382°N, 118.1253°W)
Time: 13:53:53
(UTC-08:00)

Iridium 68 - Visible Passes

Search period start: 23 November 2017 00:00
Search period end: 03 December 2017 00:00
Orbit: 776 x 779 km, 86.4° (Epoch: 23 November)

Date Brightness Start Highest point End Pass type
(mag) Time Alt. Az. Time Alt. Az. Time Alt. Az.
23 Nov 9.1 04:55:42 10° ESE 04:57:41 12° E 04:59:40 10° ENE visible
23 Nov 6.8 17:06:56 10° NNE 17:11:28 29° E 17:15:58 10° SE visible
23 Nov 8.2 18:47:47 10° NNW 18:52:00 25° W 18:56:12 10° SW visible
24 Nov 6.5 05:59:05 10° S 06:04:15 70° E 06:09:27 10° N visible
24 Nov 7.0 18:13:39 10° NNW 18:18:40 49° W 18:23:39 10° SSW visible
25 Nov 7.7 05:26:10 10° SSE 05:30:52 35° E 05:35:34 10° NNE visible
25 Nov 6.0 17:39:58 10° N 17:45:13 86° E 17:50:25 10° S visible
26 Nov 8.8 04:54:04 10° SE 04:57:35 18° E 05:01:05 10° NE visible
26 Nov 6.4 17:06:40 10° NNE 17:11:38 43° E 17:16:35 10° SSE visible
26 Nov 8.8 18:48:38 10° NW 18:51:55 17° W 18:55:12 10° WSW visible
27 Nov 6.0 05:59:07 10° S 06:04:19 79° W 06:09:33 10° N visible
27 Nov 7.8 18:14:03 10° NNW 18:18:39 32° W 18:23:15 10° SSW visible
28 Nov 6.9 05:25:49 10° SSE 05:30:51 53° E 05:35:55 10° NNE visible
28 Nov 6.5 17:40:07 10° N 17:45:16 64° W 17:50:25 10° S visible
29 Nov 8.1 04:53:11 10° SE 04:57:30 27° E 05:01:50 10° NNE visible
29 Nov 6.0 17:06:35 10° N 17:11:47 66° E 17:16:57 10° S visible
29 Nov 9.2 18:50:23 10° WNW 18:51:48 11° WNW 18:53:13 10° W visible
30 Nov 9.0 04:21:38 10° ESE 04:24:16 14° E 04:26:55 10° NE visible
30 Nov 6.2 05:59:22 10° SSW 06:04:26 52° W 06:09:32 10° N visible
30 Nov 8.5 18:14:40 10° NNW 18:18:36 22° W 18:22:33 10° SW visible
01 Dec 6.1 05:25:42 10° S 05:30:54 80° E 05:36:08 10° N visible
01 Dec 7.4 17:40:24 10° NNW 17:45:17 42° W 17:50:11 10° SSW visible
02 Dec 7.3 04:52:39 10° SSE 04:57:29 40° E 05:02:20 10° NNE visible
02 Dec 6.2 17:06:38 10° N 17:11:52 83° W 17:17:05 10° S visible
